{"data":{"norad_id":52644,"epoch":"2026-09-20T04:32:29.782176Z","epoch_age_seconds":93264,"freshness":"FRESH","line1":"1 52644U 22052AY  26263.18923359  .00000624  00000+0  28810-4 0  9995","line2":"2 52644  53.1598  93.8176 0001310  86.0423 274.0730 15.35395639240655","mean_motion":15.35395639,"eccentricity":0.000131,"inclination_deg":53.1598,"raan_deg":93.8176,"arg_perigee_deg":86.0423,"mean_anomaly_deg":274.073,"bstar":2.881e-5,"rev_number":24065,"period_min":93.786901787598,"perigee_km":458.84982789651,"apogee_km":460.64135313523,"semimajor_km":6837.8825905159,"source":"CELESTRAK","updated_at":"2026-09-20T09:00:40.098752Z"}}